Résultats de la compétition "Régionale Moyenne Distance Annecy les Marquisats 2/10/2010" du 02-10-2010 organisée par le comité départemental du 74 - Haute-Savoie
     
  Télécharger le fichier CSV.  
     
     

 Circuit "Ibis"

Licence Nom Prénom Temps CN
précédent
Score sur
la course
Différence
10396HABERKORNChloé0:22:0638213634-187
9402BORNARDJulie0:25:0419893204+1215
17925DROINSolene0:26:2624793039+560
17418LAFARGEEmeline0:27:2032282939-289
11559ROULLEAUXJulie0:27:3439192914-1005
16555PICAZOMarie0:29:5029272692-235
10184BODYMathilde0:30:3028912633-258
10091LUTHRINGERColine0:30:5121022604+502
13800DELENNECamillia0:32:3724552463+8
12045CHAILLARDDana0:33:5017572374+617
12403FALGABeatrice0:34:4719442309+365
23384BASSETFiona0:36:04N/A2227N/A
11542BONORAMarine0:38:2620642090+26
19486BISSIERECamille0:40:4529741971-1003
19894DEFIXJulia0:41:1521351947-188
11508LEBIHANBarbara0:44:4228961797-1099
9143PORTELouise0:48:5318941643-251
22216LECOEUCHECharlotte0:51:0901570N/A
12609PRATCharline0:54:4715831466-117
22673KESMEDJIANNinon0:57:31N/A1396N/A
12758DASILVAAuriane1:01:4011421303+161
23427BULLIERAlisson1:08:06N/A1179N/A
10486DODIERLucile1:13:237901095+305
20863GENNAROLeslieN/A00N/A
22451RIVOLLIERIsalineN/A00N/A
13877PIBAROTApollineN/AN/A0N/A

  Indice de confiance du circuit (moyenne des différences entre CN et score sur la course des 3 à 10 premiers) : 375






 Retour